Year,Month,Day,Hour,Minute,Value (Times are PST for temperature in C)
2019,08,10,00,00,16.60
2019,08,10,00,01,16.60
2019,08,10,00,02,16.60
2019,08,10,00,03,16.60
2019,08,10,00,04,16.60
2019,08,10,00,05,16.60
2019,08,10,00,06,16.60
2019,08,10,00,07,16.60
2019,08,10,00,08,16.60
2019,08,10,00,09,16.60
2019,08,10,00,10,16.70
2019,08,10,00,11,16.70
2019,08,10,00,12,16.70
2019,08,10,00,13,16.60
2019,08,10,00,14,16.60
2019,08,10,00,15,16.60
2019,08,10,00,16,16.60
2019,08,10,00,17,16.60
2019,08,10,00,18,16.60
2019,08,10,00,19,16.60
2019,08,10,00,20,16.60
2019,08,10,00,21,16.60
2019,08,10,00,22,16.60
2019,08,10,00,23,16.60
2019,08,10,00,24,16.60
2019,08,10,00,25,16.60
2019,08,10,00,26,16.60
2019,08,10,00,27,16.60
2019,08,10,00,28,16.60
2019,08,10,00,29,16.60
2019,08,10,00,30,16.60
2019,08,10,00,31,16.60
2019,08,10,00,32,16.60
2019,08,10,00,33,16.70
2019,08,10,00,34,16.70
2019,08,10,00,35,16.80
2019,08,10,00,36,16.80
2019,08,10,00,37,16.80
2019,08,10,00,38,16.80
2019,08,10,00,39,16.80
2019,08,10,00,40,16.90
2019,08,10,00,41,16.90
2019,08,10,00,42,16.90
2019,08,10,00,43,16.90
2019,08,10,00,44,16.90
2019,08,10,00,45,16.90
2019,08,10,00,46,16.90
2019,08,10,00,47,16.90
2019,08,10,00,48,16.90
2019,08,10,00,49,16.90
2019,08,10,00,50,16.90
2019,08,10,00,51,16.90
2019,08,10,00,52,16.90
2019,08,10,00,53,16.80
2019,08,10,00,54,16.80
2019,08,10,00,55,16.80
2019,08,10,00,56,16.80
2019,08,10,00,57,16.80
2019,08,10,00,58,16.70
2019,08,10,00,59,16.70
2019,08,10,01,00,16.70
2019,08,10,01,01,16.70
2019,08,10,01,02,16.70
2019,08,10,01,03,16.70
2019,08,10,01,04,16.70
2019,08,10,01,05,16.60
2019,08,10,01,06,16.60
2019,08,10,01,07,16.60
2019,08,10,01,08,16.60
2019,08,10,01,09,16.60
2019,08,10,01,10,16.60
2019,08,10,01,11,16.50
2019,08,10,01,12,16.50
2019,08,10,01,13,16.50
2019,08,10,01,14,16.40
2019,08,10,01,15,16.40
2019,08,10,01,16,16.40
2019,08,10,01,17,16.30
2019,08,10,01,18,16.30
2019,08,10,01,19,16.30
2019,08,10,01,20,16.30
2019,08,10,01,21,16.20
2019,08,10,01,22,16.20
2019,08,10,01,23,16.20
2019,08,10,01,24,16.20
2019,08,10,01,25,16.20
2019,08,10,01,26,16.20
2019,08,10,01,27,16.20
2019,08,10,01,28,16.20
2019,08,10,01,29,16.20
2019,08,10,01,30,16.10
2019,08,10,01,31,16.10
2019,08,10,01,32,16.10
2019,08,10,01,33,16.10
2019,08,10,01,34,16.10
2019,08,10,01,35,16.10
2019,08,10,01,36,16.10
2019,08,10,01,37,16.10
2019,08,10,01,38,16.10
2019,08,10,01,39,16.10
2019,08,10,01,40,16.10
2019,08,10,01,41,16.10
2019,08,10,01,42,16.10
2019,08,10,01,43,16.10
2019,08,10,01,44,16.10
2019,08,10,01,45,16.10
2019,08,10,01,46,16.10
2019,08,10,01,47,16.10
2019,08,10,01,48,16.10
2019,08,10,01,49,16.10
2019,08,10,01,50,16.10
2019,08,10,01,51,16.10
2019,08,10,01,52,16.10
2019,08,10,01,53,16.10
2019,08,10,01,54,16.10
2019,08,10,01,55,16.10
2019,08,10,01,56,16.10
2019,08,10,01,57,16.10
2019,08,10,01,58,16.10
2019,08,10,01,59,16.10
2019,08,10,02,00,16.10
2019,08,10,02,01,16.10
2019,08,10,02,02,16.20
2019,08,10,02,03,16.20
2019,08,10,02,04,16.20
2019,08,10,02,05,16.20
2019,08,10,02,06,16.20
2019,08,10,02,07,16.20
2019,08,10,02,08,16.20
2019,08,10,02,09,16.20
2019,08,10,02,10,16.20
2019,08,10,02,11,16.20
2019,08,10,02,12,16.20
2019,08,10,02,13,16.20
2019,08,10,02,14,16.20
2019,08,10,02,15,16.20
2019,08,10,02,16,16.20
2019,08,10,02,17,16.20
2019,08,10,02,18,16.20
2019,08,10,02,19,16.20
2019,08,10,02,20,16.20
2019,08,10,02,21,16.20
2019,08,10,02,22,16.20
2019,08,10,02,23,16.30
2019,08,10,02,24,16.30
2019,08,10,02,25,16.30
2019,08,10,02,26,16.30
2019,08,10,02,27,16.30
2019,08,10,02,28,16.30
2019,08,10,02,29,16.30
2019,08,10,02,30,16.30
2019,08,10,02,31,16.30
2019,08,10,02,32,16.30
2019,08,10,02,33,16.30
2019,08,10,02,34,16.30
2019,08,10,02,35,16.30
2019,08,10,02,36,16.20
2019,08,10,02,37,16.20
2019,08,10,02,38,16.20
2019,08,10,02,39,16.20
2019,08,10,02,40,16.20
2019,08,10,02,41,16.20
2019,08,10,02,42,16.20
2019,08,10,02,43,16.20
2019,08,10,02,44,16.20
2019,08,10,02,45,16.10
2019,08,10,02,46,16.10
2019,08,10,02,47,16.00
2019,08,10,02,48,16.00
2019,08,10,02,49,15.90
2019,08,10,02,50,15.90
2019,08,10,02,51,15.90
2019,08,10,02,52,15.90
2019,08,10,02,53,15.80
2019,08,10,02,54,15.80
2019,08,10,02,55,15.80
2019,08,10,02,56,15.80
2019,08,10,02,57,15.80
2019,08,10,02,58,15.80
2019,08,10,02,59,15.80
2019,08,10,03,00,15.70
2019,08,10,03,01,15.70
2019,08,10,03,02,15.70
2019,08,10,03,03,15.70
2019,08,10,03,04,15.70
2019,08,10,03,05,15.70
2019,08,10,03,06,15.60
2019,08,10,03,07,15.60
2019,08,10,03,08,15.60
2019,08,10,03,09,15.60
2019,08,10,03,10,15.60
2019,08,10,03,11,15.60
2019,08,10,03,12,15.60
2019,08,10,03,13,15.50
2019,08,10,03,14,15.50
2019,08,10,03,15,15.50
2019,08,10,03,16,15.40
2019,08,10,03,17,15.40
2019,08,10,03,18,15.40
2019,08,10,03,19,15.30
2019,08,10,03,20,15.30
2019,08,10,03,21,15.30
2019,08,10,03,22,15.30
2019,08,10,03,23,15.30
2019,08,10,03,24,15.20
2019,08,10,03,25,15.30
2019,08,10,03,26,15.20
2019,08,10,03,27,15.30
2019,08,10,03,28,15.30
2019,08,10,03,29,15.30
2019,08,10,03,30,15.30
2019,08,10,03,31,15.30
2019,08,10,03,32,15.30
2019,08,10,03,33,15.30
2019,08,10,03,34,15.30
2019,08,10,03,35,15.20
2019,08,10,03,36,15.20
2019,08,10,03,37,15.10
2019,08,10,03,38,15.10
2019,08,10,03,39,15.10
2019,08,10,03,40,15.10
2019,08,10,03,41,15.10
2019,08,10,03,42,15.10
2019,08,10,03,43,15.10
2019,08,10,03,44,15.10
2019,08,10,03,45,15.10
2019,08,10,03,46,15.10
2019,08,10,03,47,15.10
2019,08,10,03,48,15.10
2019,08,10,03,49,15.10
2019,08,10,03,50,15.10
2019,08,10,03,51,15.10
2019,08,10,03,52,15.00
2019,08,10,03,53,15.00
2019,08,10,03,54,15.00
2019,08,10,03,55,15.00
2019,08,10,03,56,15.00
2019,08,10,03,57,15.00
2019,08,10,03,58,14.90
2019,08,10,03,59,14.90
2019,08,10,04,00,14.90
2019,08,10,04,01,14.90
2019,08,10,04,02,14.90
2019,08,10,04,03,14.90
2019,08,10,04,04,14.90
2019,08,10,04,05,14.80
2019,08,10,04,06,14.80
2019,08,10,04,07,14.80
2019,08,10,04,08,14.80
2019,08,10,04,09,14.80
2019,08,10,04,10,14.80
2019,08,10,04,11,14.80
2019,08,10,04,12,14.80
2019,08,10,04,13,14.80
2019,08,10,04,14,14.80
2019,08,10,04,15,14.80
2019,08,10,04,16,14.80
2019,08,10,04,17,14.80
2019,08,10,04,18,14.80
2019,08,10,04,19,14.80
2019,08,10,04,20,14.80
2019,08,10,04,21,14.80
2019,08,10,04,22,14.70
2019,08,10,04,23,14.70
2019,08,10,04,24,14.70
2019,08,10,04,25,14.70
2019,08,10,04,26,14.70
2019,08,10,04,27,14.70
2019,08,10,04,28,14.70
2019,08,10,04,29,14.70
2019,08,10,04,30,14.70
2019,08,10,04,31,14.70
2019,08,10,04,32,14.70
2019,08,10,04,33,14.70
2019,08,10,04,34,14.70
2019,08,10,04,35,14.60
2019,08,10,04,36,14.60
2019,08,10,04,37,14.60
2019,08,10,04,38,14.60
2019,08,10,04,39,14.60
2019,08,10,04,40,14.60
2019,08,10,04,41,14.60
2019,08,10,04,42,14.60
2019,08,10,04,43,14.60
2019,08,10,04,44,14.60
2019,08,10,04,45,14.60
2019,08,10,04,46,14.70
2019,08,10,04,47,14.70
2019,08,10,04,48,14.70
2019,08,10,04,49,14.70
2019,08,10,04,50,14.70
2019,08,10,04,51,14.70
2019,08,10,04,52,14.70
2019,08,10,04,53,14.70
2019,08,10,04,54,14.70
2019,08,10,04,55,14.70
2019,08,10,04,56,14.70
2019,08,10,04,57,14.70
2019,08,10,04,58,14.80
2019,08,10,04,59,14.80
2019,08,10,05,00,14.80
2019,08,10,05,01,14.80
2019,08,10,05,02,14.80
2019,08,10,05,03,14.80
2019,08,10,05,04,14.80
2019,08,10,05,05,14.80
2019,08,10,05,06,14.80
2019,08,10,05,07,14.80
2019,08,10,05,08,14.80
2019,08,10,05,09,14.80
2019,08,10,05,10,14.80
2019,08,10,05,11,14.80
2019,08,10,05,12,14.80
2019,08,10,05,13,14.80
2019,08,10,05,14,14.80
2019,08,10,05,15,14.80
2019,08,10,05,16,14.80
2019,08,10,05,17,14.80
2019,08,10,05,18,14.80
2019,08,10,05,19,14.80
2019,08,10,05,20,14.80
2019,08,10,05,21,14.80
2019,08,10,05,22,14.90
2019,08,10,05,23,14.90
2019,08,10,05,24,14.90
2019,08,10,05,25,14.90
2019,08,10,05,26,14.90
2019,08,10,05,27,14.90
2019,08,10,05,28,14.90
2019,08,10,05,29,14.90
2019,08,10,05,30,14.90
2019,08,10,05,31,14.90
2019,08,10,05,32,14.90
2019,08,10,05,33,14.90
2019,08,10,05,34,14.80
2019,08,10,05,35,14.80
2019,08,10,05,36,14.80
2019,08,10,05,37,14.80
2019,08,10,05,38,14.80
2019,08,10,05,39,14.80
2019,08,10,05,40,14.80
2019,08,10,05,41,14.80
2019,08,10,05,42,14.80
2019,08,10,05,43,14.80
2019,08,10,05,44,14.80
2019,08,10,05,45,14.70
2019,08,10,05,46,14.70
2019,08,10,05,47,14.70
2019,08,10,05,48,14.60
2019,08,10,05,49,14.60
2019,08,10,05,50,14.60
2019,08,10,05,51,14.50
2019,08,10,05,52,14.50
2019,08,10,05,53,14.50
2019,08,10,05,54,14.50
2019,08,10,05,55,14.50
2019,08,10,05,56,14.60
2019,08,10,05,57,14.60
2019,08,10,05,58,14.60
2019,08,10,05,59,14.60
2019,08,10,06,00,14.60
2019,08,10,06,01,14.60
2019,08,10,06,02,14.60
2019,08,10,06,03,14.60
2019,08,10,06,04,14.60
2019,08,10,06,05,14.60
2019,08,10,06,06,14.70
2019,08,10,06,07,14.70
2019,08,10,06,08,14.70
2019,08,10,06,09,14.70
2019,08,10,06,10,14.70
2019,08,10,06,11,14.70
2019,08,10,06,12,14.70
2019,08,10,06,13,14.70
2019,08,10,06,14,14.70
2019,08,10,06,15,14.70
2019,08,10,06,16,14.70
2019,08,10,06,17,14.70
2019,08,10,06,18,14.70
